Weather History for Key West, FL

Change the Weather History Date:

Wednesday, April 3, 2013

  Actual Average Record
Temperature  
Mean Temperature 78 °F 75 °F  
Max Temperature 82 °F 80 °F 87 °F (1975)
Min Temperature 73 °F 70 °F 56 °F (1915)
Degree Days  
Heating Degree Days 0 0  
Month to date heating degree days 0 0  
Since 1 July heating degree days 28 73  
Cooling Degree Days 13 10  
Month to date cooling degree days 37 30  
Year to date cooling degree days 733 640  
Growing Degree Days 28 (Base 50)    
Moisture  
Dew Point 70 °F    
Average Humidity 81    
Maximum Humidity 87    
Minimum Humidity 74    
Precipitation  
Precipitation 0.00 in 0.08 in 1.27 in (1958)
Month to date precipitation 0.00 0.22  
Year to date precipitation 3.74 5.80  
Snow  
Snow 0.00 in - - ()
Month to date snowfall 0.0  
Since 1 July snowfall 0.0  
Snow Depth 0.00 in    
Sea Level Pressure  
Sea Level Pressure 30.02 in    
Wind  
Wind Speed 11 mph (ESE)    
Max Wind Speed 18 mph    
Max Gust Speed 28 mph    
Visibility 10 miles    
Events      
T = Trace of Precipitation, MM = Missing Value Source: NWS Daily Summary

Daily Weather History Graph

Daily Weather History Graph

Search for Another Location

Airport:

Trip Planner

Search our weather history database for the weather conditions in past years. The results will help you decide how hot, cold, wet, or windy it might be!

Date:

Astronomy

Apr. 03, 2013 Rise Set
Actual Time 7:16 AM EDT 7:44 PM EDT
Civil Twilight 6:53 AM EDT 8:07 PM EDT
Nautical Twilight 6:26 AM EDT 8:33 PM EDT
Astronomical Twilight 5:59 AM EDT 9:01 PM EDT
Moon 2:16 AM EDT (4/3) 1:33 PM EDT (4/3)
Length of Visible Light 13h 13m
Length of Day
12h 27m
Last Quarter, 45% of the Moon is Illuminated
Apr 3
Last Quarter
Apr 10
New
Apr 18
First Quarter
Apr 25
Full
May 2
Last Quarter

Hourly Weather History & Observations

Time (EDT) Temp. Heat Index Dew Point Humidity Pressure Visibility Wind Dir Wind Speed Gust Speed Precip Events Conditions
12:53 AM 73.0 °F - 66.9 °F 81% 30.07 in 10.0 mi ENE 5.8 mph - N/A   Clear
1:53 AM 73.0 °F - 66.0 °F 79% 30.06 in 10.0 mi NE 3.5 mph - N/A   Clear
2:53 AM 73.0 °F - 66.0 °F 79% 30.04 in 10.0 mi NE 3.5 mph - N/A   Clear
3:53 AM 73.0 °F - 66.0 °F 79% 30.03 in 10.0 mi ENE 4.6 mph - N/A   Clear
4:53 AM 73.9 °F - 68.0 °F 82% 30.01 in 10.0 mi ESE 8.1 mph - N/A   Clear
5:53 AM 75.0 °F - 69.1 °F 82% 30.02 in 10.0 mi ESE 10.4 mph - N/A   Clear
6:53 AM 75.0 °F - 69.1 °F 82% 30.02 in 10.0 mi ESE 11.5 mph - N/A   Clear
7:53 AM 75.0 °F - 69.1 °F 82% 30.02 in 10.0 mi ESE 10.4 mph - N/A   Clear
8:53 AM 75.9 °F - 68.0 °F 76% 30.03 in 10.0 mi ESE 15.0 mph - N/A   Clear
9:53 AM 78.1 °F - 70.0 °F 76% 30.04 in 10.0 mi SE 10.4 mph - N/A   Clear
10:53 AM 78.1 °F - 71.1 °F 79% 30.04 in 10.0 mi SE 11.5 mph - N/A   Clear
11:53 AM 80.1 °F 83.8 °F 72.0 °F 76% 30.03 in 10.0 mi SE 12.7 mph - N/A   Clear
12:53 PM 80.1 °F 83.6 °F 71.1 °F 74% 30.01 in 10.0 mi ESE 12.7 mph - N/A   Clear
1:53 PM 81.0 °F 85.2 °F 72.0 °F 74% 30.00 in 10.0 mi SE 12.7 mph - N/A   Clear
2:53 PM 81.0 °F 85.2 °F 72.0 °F 74% 29.99 in 10.0 mi SE 11.5 mph - N/A   Clear
3:53 PM 81.0 °F 85.2 °F 72.0 °F 74% 29.98 in 10.0 mi ESE 12.7 mph - N/A   Clear
4:53 PM 81.0 °F 84.9 °F 71.1 °F 72% 29.97 in 10.0 mi ESE 13.8 mph - N/A   Clear
5:53 PM 80.1 °F 83.6 °F 71.1 °F 74% 29.96 in 10.0 mi East 15.0 mph 27.6 mph N/A   Clear
6:53 PM 79.0 °F - 71.1 °F 77% 29.96 in 10.0 mi East 15.0 mph - N/A   Scattered Clouds
7:53 PM 78.1 °F - 71.1 °F 79% 29.98 in 10.0 mi East 12.7 mph - N/A   Mostly Cloudy
8:53 PM 78.1 °F - 71.1 °F 79% 30.01 in 10.0 mi East 13.8 mph - N/A   Overcast
9:53 PM 77.0 °F - 71.1 °F 82% 30.03 in 10.0 mi ESE 10.4 mph - N/A   Scattered Clouds
10:53 PM 77.0 °F - 71.1 °F 82% 30.04 in 10.0 mi ESE 10.4 mph - N/A   Clear
11:53 PM 75.9 °F - 71.1 °F 85% 30.04 in 10.0 mi ESE 10.4 mph - N/A   Clear